START_TIME,STEP,MOV.,P1,t_acc.,E44,t_acc.,A3,t_acc.,P10,t_acc.
1986-01-24 15:00:24.710 ,6,0,816.,1.2,0.,1.2,1.,1.2,0.,1.2
1986-01-24 15:00:25.910 ,6,0,832.,1.2,0.,1.2,3.,1.2,0.,1.2
1986-01-24 15:00:27.110 ,6,0,848.,1.2,0.,1.2,2.,1.2,1.,1.2
1986-01-24 15:00:28.310 ,6,0,784.,1.2,0.,1.2,1.,1.2,0.,1.2
1986-01-24 15:00:29.510 ,6,0,784.,1.2,0.,1.2,1.,1.2,0.,1.2
1986-01-24 15:00:30.710 ,6,0,816.,1.2,0.,1.2,0.,1.2,0.,1.2
1986-01-24 15:00:31.910 ,6,0,864.,1.2,0.,1.2,0.,1.2,0.,1.2
1986-01-24 15:00:33.110 ,6,0,816.,1.2,0.,1.2,1.,1.2,1.,1.2
1986-01-24 15:00:34.310 ,6,0,832.,1.2,0.,1.2,3.,1.2,0.,1.2
1986-01-24 15:00:35.510 ,6,0,816.,1.2,0.,1.2,0.,1.2,0.,1.2
1986-01-24 15:00:36.710 ,6,0,816.,1.2,0.,1.2,2.,1.2,0.,1.2
1986-01-24 15:00:37.910 ,6,0,768.,1.2,0.,1.2,2.,1.2,0.,1.2
1986-01-24 15:00:39.110 ,6,0,800.,1.2,0.,1.2,1.,1.2,0.,1.2
1986-01-24 15:00:40.310 ,6,0,784.,1.2,0.,1.2,4.,1.2,1.,1.2
1986-01-24 15:00:41.510 ,6,0,752.,1.2,0.,1.2,4.,1.2,0.,1.2
1986-01-24 15:00:42.710 ,6,0,832.,1.2,0.,1.2,3.,1.2,0.,1.2
1986-01-24 15:00:43.910 ,6,0,752.,1.2,0.,1.2,0.,1.2,0.,1.2
1986-01-24 15:00:45.110 ,6,0,736.,1.2,0.,1.2,3.,1.2,0.,1.2
1986-01-24 15:00:46.310 ,6,0,816.,1.2,0.,1.2,1.,1.2,0.,1.2
1986-01-24 15:00:47.510 ,6,0,816.,1.2,0.,1.2,5.,1.2,0.,1.2
1986-01-24 15:00:48.710 ,6,0,784.,1.2,0.,1.2,0.,1.2,0.,1.2
1986-01-24 15:00:49.910 ,6,0,752.,1.2,0.,1.2,1.,1.2,0.,1.2
1986-01-24 15:00:51.110 ,6,0,752.,1.2,0.,1.2,0.,1.2,0.,1.2
1986-01-24 15:00:52.310 ,6,0,752.,1.2,0.,1.2,3.,1.2,0.,1.2
1986-01-24 15:00:53.510 ,6,0,784.,1.2,0.,1.2,1.,1.2,0.,1.2
1986-01-24 15:00:54.710 ,6,0,784.,1.2,0.,1.2,0.,1.2,0.,1.2
1986-01-24 15:00:55.910 ,6,0,816.,1.2,0.,1.2,0.,1.2,0.,1.2
1986-01-24 15:00:57.110 ,6,0,768.,1.2,0.,1.2,6.,1.2,0.,1.2
1986-01-24 15:00:58.310 ,6,0,816.,1.2,0.,1.2,0.,1.2,0.,1.2
1986-01-24 15:00:59.510 ,6,0,784.,1.2,0.,1.2,2.,1.2,0.,1.2
1986-01-24 15:01:00.710 ,6,0,784.,1.2,0.,1.2,5.,1.2,1.,1.2
1986-01-24 15:01:01.910 ,6,0,768.,1.2,0.,1.2,4.,1.2,0.,1.2
1986-01-24 15:01:03.110 ,6,0,720.,1.2,0.,1.2,2.,1.2,0.,1.2
1986-01-24 15:01:04.310 ,6,0,784.,1.2,0.,1.2,1.,1.2,0.,1.2
1986-01-24 15:01:05.510 ,6,0,800.,1.2,0.,1.2,1.,1.2,0.,1.2
1986-01-24 15:01:06.710 ,6,0,752.,1.2,0.,1.2,3.,1.2,0.,1.2
1986-01-24 15:01:07.910 ,6,0,720.,1.2,0.,1.2,2.,1.2,0.,1.2
1986-01-24 15:01:09.110 ,6,0,720.,1.2,0.,1.2,2.,1.2,0.,1.2
1986-01-24 15:01:10.310 ,6,0,752.,1.2,0.,1.2,0.,1.2,0.,1.2
1986-01-24 15:01:11.510 ,6,0,736.,1.2,0.,1.2,1.,1.2,0.,1.2
1986-01-24 15:01:12.710 ,6,0,768.,1.2,0.,1.2,2.,1.2,0.,1.2
1986-01-24 15:01:13.910 ,6,0,784.,1.2,0.,1.2,1.,1.2,0.,1.2
1986-01-24 15:01:15.110 ,6,0,784.,1.2,0.,1.2,1.,1.2,0.,1.2
1986-01-24 15:01:16.310 ,6,0,736.,1.2,0.,1.2,2.,1.2,0.,1.2
1986-01-24 15:01:17.510 ,6,0,720.,1.2,0.,1.2,2.,1.2,0.,1.2
1986-01-24 15:01:18.710 ,6,0,768.,1.2,0.,1.2,0.,1.2,0.,1.2
1986-01-24 15:01:19.910 ,6,0,768.,1.2,0.,1.2,0.,1.2,0.,1.2
1986-01-24 15:01:21.110 ,6,0,736.,1.2,0.,1.2,1.,1.2,0.,1.2
1986-01-24 15:01:22.310 ,6,0,784.,1.2,0.,1.2,0.,1.2,0.,1.2
1986-01-24 15:01:23.510 ,6,0,736.,1.2,0.,1.2,1.,1.2,0.,1.2
1986-01-24 15:01:24.710 ,6,0,720.,1.2,0.,1.2,0.,1.2,0.,1.2
1986-01-24 15:01:25.910 ,6,0,784.,1.2,0.,1.2,0.,1.2,0.,1.2
1986-01-24 15:01:27.110 ,6,0,704.,1.2,0.,1.2,0.,1.2,0.,1.2
1986-01-24 15:01:28.310 ,6,0,720.,1.2,0.,1.2,1.,1.2,0.,1.2
1986-01-24 15:01:29.510 ,6,0,736.,1.2,0.,1.2,1.,1.2,0.,1.2
1986-01-24 15:01:30.710 ,6,0,736.,1.2,0.,1.2,1.,1.2,0.,1.2
1986-01-24 15:01:31.910 ,6,0,,0,,0,,0,,0
1986-01-24 15:01:33.110 ,6,0,,0,,0,,0,,0
1986-01-24 15:01:34.310 ,6,0,,0,,0,,0,,0
1986-01-24 15:01:35.510 ,6,0,,0,,0,,0,,0
1986-01-24 15:01:38.510 ,6,0,,0,,0,,0,,0
1986-01-24 15:01:39.710 ,6,0,768.,1.2,0.,1.2,3.,1.2,0.,1.2
1986-01-24 15:01:40.910 ,6,0,784.,1.2,0.,1.2,1.,1.2,0.,1.2
1986-01-24 15:01:42.110 ,6,0,704.,1.2,0.,1.2,6.,1.2,2.,1.2
1986-01-24 15:01:43.310 ,6,0,688.,1.2,0.,1.2,1.,1.2,0.,1.2
1986-01-24 15:01:44.510 ,6,0,704.,1.2,0.,1.2,1.,1.2,1.,1.2
1986-01-24 15:01:45.710 ,6,0,720.,1.2,0.,1.2,1.,1.2,0.,1.2
1986-01-24 15:01:46.910 ,6,0,656.,1.2,0.,1.2,4.,1.2,0.,1.2
1986-01-24 15:01:48.110 ,6,0,784.,1.2,0.,1.2,2.,1.2,0.,1.2
1986-01-24 15:01:49.310 ,6,0,736.,1.2,0.,1.2,2.,1.2,0.,1.2
1986-01-24 15:01:50.510 ,6,0,720.,1.2,0.,1.2,1.,1.2,0.,1.2
1986-01-24 15:01:51.710 ,6,0,704.,1.2,0.,1.2,2.,1.2,0.,1.2
1986-01-24 15:01:52.910 ,6,0,736.,1.2,0.,1.2,2.,1.2,0.,1.2
1986-01-24 15:01:54.110 ,6,0,720.,1.2,0.,1.2,1.,1.2,0.,1.2
1986-01-24 15:01:55.310 ,6,0,736.,1.2,0.,1.2,2.,1.2,1.,1.2
1986-01-24 15:01:56.510 ,6,0,720.,1.2,0.,1.2,3.,1.2,0.,1.2
1986-01-24 15:01:57.710 ,6,0,720.,1.2,0.,1.2,1.,1.2,2.,1.2
1986-01-24 15:01:58.910 ,6,0,752.,1.2,0.,1.2,0.,1.2,0.,1.2
1986-01-24 15:02:00.110 ,6,0,704.,1.2,0.,1.2,0.,1.2,0.,1.2
1986-01-24 15:02:01.310 ,6,0,672.,1.2,0.,1.2,0.,1.2,0.,1.2
1986-01-24 15:02:00.710 ,6,0,752.,1.2,0.,1.2,1.,1.2,1.,1.2
1986-01-24 15:02:01.910 ,6,0,704.,1.2,0.,1.2,1.,1.2,0.,1.2
1986-01-24 15:02:03.110 ,6,0,688.,1.2,0.,1.2,3.,1.2,0.,1.2
1986-01-24 15:02:04.310 ,6,0,720.,1.2,0.,1.2,0.,1.2,0.,1.2
1986-01-24 15:02:05.510 ,6,0,672.,1.2,0.,1.2,1.,1.2,0.,1.2
1986-01-24 15:02:06.710 ,6,0,736.,1.2,0.,1.2,0.,1.2,0.,1.2
1986-01-24 15:02:07.910 ,6,0,704.,1.2,0.,1.2,6.,1.2,0.,1.2
1986-01-24 15:02:09.110 ,6,0,672.,1.2,0.,1.2,2.,1.2,1.,1.2
1986-01-24 15:02:10.310 ,6,0,720.,1.2,0.,1.2,0.,1.2,1.,1.2
1986-01-24 15:02:11.510 ,6,0,688.,1.2,0.,1.2,0.,1.2,0.,1.2
1986-01-24 15:02:12.710 ,6,0,688.,1.2,0.,1.2,3.,1.2,0.,1.2
1986-01-24 15:02:13.910 ,6,0,656.,1.2,0.,1.2,1.,1.2,2.,1.2
1986-01-24 15:02:15.110 ,6,0,704.,1.2,0.,1.2,3.,1.2,0.,1.2
1986-01-24 15:02:16.310 ,6,0,672.,1.2,0.,1.2,1.,1.2,1.,1.2
1986-01-24 15:02:17.510 ,6,0,640.,1.2,0.,1.2,2.,1.2,0.,1.2
1986-01-24 15:02:18.710 ,6,0,656.,1.2,0.,1.2,1.,1.2,0.,1.2
1986-01-24 15:02:19.910 ,6,0,672.,1.2,0.,1.2,3.,1.2,0.,1.2
1986-01-24 15:02:21.110 ,6,0,672.,1.2,0.,1.2,0.,1.2,0.,1.2
1986-01-24 15:02:22.310 ,6,0,672.,1.2,0.,1.2,1.,1.2,0.,1.2
1986-01-24 15:02:23.510 ,6,0,,0,,0,,0,,0
1986-01-24 15:02:30.710 ,6,0,,0,,0,,0,,0
1986-01-24 15:02:31.910 ,6,0,,0,,0,,0,,0
1986-01-24 15:02:33.110 ,6,0,,0,,0,,0,,0
1986-01-24 15:02:34.310 ,6,0,,0,,0,,0,,0
1986-01-24 15:02:35.510 ,6,0,,0,,0,,0,,0
1986-01-24 15:02:36.710 ,6,0,704.,1.2,0.,1.2,1.,1.2,0.,1.2
1986-01-24 15:02:37.910 ,6,0,736.,1.2,0.,1.2,1.,1.2,0.,1.2
1986-01-24 15:02:39.110 ,6,0,656.,1.2,0.,1.2,1.,1.2,0.,1.2
1986-01-24 15:02:40.310 ,6,0,656.,1.2,0.,1.2,1.,1.2,0.,1.2
1986-01-24 15:02:41.510 ,6,0,688.,1.2,0.,1.2,0.,1.2,0.,1.2
1986-01-24 15:02:42.710 ,6,0,640.,1.2,0.,1.2,2.,1.2,0.,1.2
1986-01-24 15:02:43.910 ,6,0,656.,1.2,0.,1.2,1.,1.2,0.,1.2
1986-01-24 15:02:45.110 ,6,0,704.,1.2,0.,1.2,1.,1.2,0.,1.2
1986-01-24 15:02:46.310 ,6,0,624.,1.2,0.,1.2,1.,1.2,0.,1.2
1986-01-24 15:02:47.510 ,6,0,672.,1.2,0.,1.2,2.,1.2,1.,1.2
1986-01-24 15:02:48.710 ,6,0,656.,1.2,0.,1.2,1.,1.2,0.,1.2
1986-01-24 15:02:49.910 ,6,0,672.,1.2,0.,1.2,1.,1.2,0.,1.2
1986-01-24 15:02:51.110 ,6,0,640.,1.2,0.,1.2,1.,1.2,0.,1.2
1986-01-24 15:02:52.310 ,6,0,688.,1.2,0.,1.2,4.,1.2,0.,1.2
1986-01-24 15:02:53.510 ,6,0,608.,1.2,0.,1.2,0.,1.2,0.,1.2
1986-01-24 15:02:48.710 ,6,0,656.,1.2,0.,1.2,0.,1.2,0.,1.2
1986-01-24 15:02:49.910 ,6,0,640.,1.2,0.,1.2,1.,1.2,0.,1.2
1986-01-24 15:02:51.110 ,6,0,672.,1.2,0.,1.2,0.,1.2,0.,1.2
1986-01-24 15:02:52.310 ,6,0,656.,1.2,0.,1.2,0.,1.2,1.,1.2
1986-01-24 15:02:53.510 ,6,0,656.,1.2,0.,1.2,1.,1.2,0.,1.2
1986-01-24 15:02:54.710 ,6,0,656.,1.2,0.,1.2,1.,1.2,0.,1.2
1986-01-24 15:02:55.910 ,6,0,688.,1.2,0.,1.2,0.,1.2,0.,1.2
1986-01-24 15:02:57.110 ,6,0,688.,1.2,0.,1.2,0.,1.2,0.,1.2
1986-01-24 15:02:58.310 ,6,0,704.,1.2,0.,1.2,1.,1.2,0.,1.2
1986-01-24 15:02:59.510 ,6,0,640.,1.2,0.,1.2,0.,1.2,1.,1.2
1986-01-24 15:03:00.710 ,6,0,640.,1.2,0.,1.2,0.,1.2,0.,1.2
1986-01-24 15:03:01.910 ,6,0,704.,1.2,0.,1.2,1.,1.2,0.,1.2
1986-01-24 15:03:03.110 ,6,0,656.,1.2,0.,1.2,1.,1.2,0.,1.2
1986-01-24 15:03:04.310 ,6,0,672.,1.2,0.,1.2,3.,1.2,0.,1.2
1986-01-24 15:03:05.510 ,6,0,624.,1.2,0.,1.2,3.,1.2,1.,1.2
1986-01-24 15:03:06.710 ,6,0,672.,1.2,0.,1.2,0.,1.2,0.,1.2
1986-01-24 15:03:07.910 ,6,0,640.,1.2,0.,1.2,1.,1.2,0.,1.2
1986-01-24 15:03:09.110 ,6,0,,0,,0,,0,,0
1986-01-24 15:03:10.310 ,6,0,,0,,0,,0,,0
1986-01-24 15:03:11.510 ,6,0,,0,,0,,0,,0
1986-01-24 15:03:14.510 ,6,0,,0,,0,,0,,0
1986-01-24 15:03:15.710 ,6,0,624.,1.2,0.,1.2,1.,1.2,0.,1.2
1986-01-24 15:03:16.910 ,6,0,624.,1.2,0.,1.2,0.,1.2,0.,1.2
1986-01-24 15:03:18.110 ,6,0,640.,1.2,0.,1.2,1.,1.2,0.,1.2
1986-01-24 15:03:19.310 ,6,0,624.,1.2,0.,1.2,1.,1.2,0.,1.2
1986-01-24 15:03:20.510 ,6,0,640.,1.2,0.,1.2,3.,1.2,0.,1.2
1986-01-24 15:03:21.710 ,6,0,656.,1.2,0.,1.2,2.,1.2,0.,1.2
1986-01-24 15:03:22.910 ,6,0,672.,1.2,0.,1.2,2.,1.2,1.,1.2
1986-01-24 15:03:24.110 ,6,0,592.,1.2,0.,1.2,0.,1.2,0.,1.2
1986-01-24 15:03:25.310 ,6,0,656.,1.2,0.,1.2,1.,1.2,0.,1.2
1986-01-24 15:03:26.510 ,6,0,640.,1.2,0.,1.2,1.,1.2,0.,1.2
1986-01-24 15:03:27.710 ,6,0,592.,1.2,0.,1.2,1.,1.2,0.,1.2
1986-01-24 15:03:28.910 ,6,0,608.,1.2,0.,1.2,0.,1.2,0.,1.2
1986-01-24 15:03:30.110 ,6,0,576.,1.2,0.,1.2,1.,1.2,1.,1.2
1986-01-24 15:03:31.310 ,6,0,608.,1.2,0.,1.2,0.,1.2,1.,1.2
1986-01-24 15:03:32.510 ,6,0,640.,1.2,0.,1.2,0.,1.2,0.,1.2
1986-01-24 15:03:33.710 ,6,0,608.,1.2,0.,1.2,0.,1.2,1.,1.2
1986-01-24 15:03:34.910 ,6,0,672.,1.2,0.,1.2,3.,1.2,0.,1.2
1986-01-24 15:03:36.110 ,6,0,656.,1.2,0.,1.2,0.,1.2,0.,1.2
1986-01-24 15:03:37.310 ,6,0,560.,1.2,0.,1.2,1.,1.2,0.,1.2
1986-01-24 15:03:36.710 ,6,0,608.,1.2,0.,1.2,2.,1.2,0.,1.2
1986-01-24 15:03:37.910 ,6,0,608.,1.2,0.,1.2,2.,1.2,0.,1.2
1986-01-24 15:03:39.110 ,6,0,576.,1.2,0.,1.2,0.,1.2,1.,1.2
1986-01-24 15:03:40.310 ,6,0,592.,1.2,0.,1.2,1.,1.2,0.,1.2
1986-01-24 15:03:41.510 ,6,0,624.,1.2,0.,1.2,1.,1.2,0.,1.2
1986-01-24 15:03:42.710 ,6,0,624.,1.2,0.,1.2,1.,1.2,0.,1.2
1986-01-24 15:03:43.910 ,6,0,608.,1.2,0.,1.2,1.,1.2,0.,1.2
1986-01-24 15:03:45.110 ,6,0,576.,1.2,0.,1.2,1.,1.2,0.,1.2
1986-01-24 15:03:46.310 ,6,0,576.,1.2,0.,1.2,1.,1.2,0.,1.2
1986-01-24 15:03:47.510 ,6,0,640.,1.2,0.,1.2,4.,1.2,0.,1.2
1986-01-24 15:03:48.710 ,6,0,640.,1.2,0.,1.2,1.,1.2,0.,1.2
1986-01-24 15:03:49.910 ,6,0,608.,1.2,0.,1.2,0.,1.2,0.,1.2
1986-01-24 15:03:51.110 ,6,0,592.,1.2,0.,1.2,1.,1.2,0.,1.2
1986-01-24 15:03:52.310 ,6,0,608.,1.2,0.,1.2,0.,1.2,0.,1.2
1986-01-24 15:03:53.510 ,6,0,592.,1.2,0.,1.2,1.,1.2,0.,1.2
1986-01-24 15:03:54.710 ,6,0,608.,1.2,0.,1.2,1.,1.2,0.,1.2
1986-01-24 15:03:55.910 ,6,0,608.,1.2,0.,1.2,2.,1.2,0.,1.2
1986-01-24 15:03:57.110 ,6,0,624.,1.2,0.,1.2,2.,1.2,0.,1.2
1986-01-24 15:03:58.310 ,6,0,576.,1.2,0.,1.2,0.,1.2,0.,1.2
1986-01-24 15:03:59.510 ,6,0,,0,,0,,0,,0
1986-01-24 15:04:06.710 ,6,0,,0,,0,,0,,0
1986-01-24 15:04:07.910 ,6,0,,0,,0,,0,,0
1986-01-24 15:04:09.110 ,6,0,,0,,0,,0,,0
1986-01-24 15:04:10.310 ,6,0,,0,,0,,0,,0
1986-01-24 15:04:11.510 ,6,0,,0,,0,,0,,0
1986-01-24 15:04:12.710 ,6,0,544.,1.2,0.,1.2,3.,1.2,0.,1.2
1986-01-24 15:04:13.910 ,6,0,576.,1.2,0.,1.2,0.,1.2,0.,1.2
1986-01-24 15:04:15.110 ,6,0,608.,1.2,0.,1.2,1.,1.2,0.,1.2
1986-01-24 15:04:16.310 ,6,0,512.,1.2,0.,1.2,1.,1.2,0.,1.2
1986-01-24 15:04:17.510 ,6,0,544.,1.2,0.,1.2,1.,1.2,0.,1.2
1986-01-24 15:04:18.710 ,6,0,592.,1.2,0.,1.2,1.,1.2,0.,1.2
1986-01-24 15:04:19.910 ,6,0,560.,1.2,0.,1.2,1.,1.2,0.,1.2
1986-01-24 15:04:21.110 ,6,0,576.,1.2,0.,1.2,0.,1.2,0.,1.2
1986-01-24 15:04:22.310 ,6,0,544.,1.2,0.,1.2,0.,1.2,0.,1.2
1986-01-24 15:04:23.510 ,6,0,576.,1.2,0.,1.2,0.,1.2,0.,1.2
1986-01-24 15:04:24.710 ,6,0,560.,1.2,0.,1.2,0.,1.2,0.,1.2
1986-01-24 15:04:25.910 ,6,0,592.,1.2,0.,1.2,1.,1.2,0.,1.2
1986-01-24 15:04:27.110 ,6,0,576.,1.2,0.,1.2,1.,1.2,0.,1.2
1986-01-24 15:04:28.310 ,6,0,560.,1.2,0.,1.2,0.,1.2,0.,1.2
1986-01-24 15:04:29.510 ,6,0,560.,1.2,0.,1.2,1.,1.2,0.,1.2
1986-01-24 15:04:24.710 ,6,0,576.,1.2,0.,1.2,0.,1.2,0.,1.2
1986-01-24 15:04:25.910 ,6,0,576.,1.2,0.,1.2,1.,1.2,0.,1.2
1986-01-24 15:04:27.110 ,6,0,592.,1.2,0.,1.2,0.,1.2,0.,1.2
1986-01-24 15:04:28.310 ,6,0,560.,1.2,0.,1.2,1.,1.2,0.,1.2
1986-01-24 15:04:29.510 ,6,0,544.,1.2,0.,1.2,1.,1.2,0.,1.2
1986-01-24 15:04:30.710 ,6,0,576.,1.2,0.,1.2,0.,1.2,0.,1.2
1986-01-24 15:04:31.910 ,6,0,544.,1.2,0.,1.2,0.,1.2,0.,1.2
1986-01-24 15:04:33.110 ,6,0,560.,1.2,0.,1.2,0.,1.2,0.,1.2
1986-01-24 15:04:34.310 ,6,0,528.,1.2,0.,1.2,0.,1.2,0.,1.2
1986-01-24 15:04:35.510 ,6,0,576.,1.2,0.,1.2,0.,1.2,0.,1.2
1986-01-24 15:04:36.710 ,6,0,560.,1.2,0.,1.2,0.,1.2,0.,1.2
1986-01-24 15:04:37.910 ,6,0,576.,1.2,0.,1.2,0.,1.2,1.,1.2
1986-01-24 15:04:39.110 ,6,0,560.,1.2,0.,1.2,2.,1.2,0.,1.2
1986-01-24 15:04:40.310 ,6,0,560.,1.2,0.,1.2,2.,1.2,0.,1.2
1986-01-24 15:04:41.510 ,6,0,504.,1.2,0.,1.2,1.,1.2,0.,1.2
1986-01-24 15:04:42.710 ,6,0,544.,1.2,0.,1.2,3.,1.2,0.,1.2
1986-01-24 15:04:43.910 ,6,0,560.,1.2,0.,1.2,2.,1.2,0.,1.2
1986-01-24 15:04:45.110 ,6,0,,0,,0,,0,,0
1986-01-24 15:04:46.310 ,6,0,,0,,0,,0,,0
1986-01-24 15:04:47.510 ,6,0,,0,,0,,0,,0
1986-01-24 15:04:50.510 ,6,0,,0,,0,,0,,0
1986-01-24 15:04:51.710 ,6,0,512.,1.2,0.,1.2,1.,1.2,0.,1.2
1986-01-24 15:04:52.910 ,6,0,528.,1.2,0.,1.2,2.,1.2,0.,1.2
1986-01-24 15:04:54.110 ,6,0,528.,1.2,0.,1.2,1.,1.2,0.,1.2
1986-01-24 15:04:55.310 ,6,0,528.,1.2,0.,1.2,0.,1.2,0.,1.2
1986-01-24 15:04:56.510 ,6,0,528.,1.2,0.,1.2,1.,1.2,0.,1.2
1986-01-24 15:04:57.710 ,6,0,544.,1.2,0.,1.2,0.,1.2,0.,1.2
1986-01-24 15:04:58.910 ,6,0,512.,1.2,0.,1.2,1.,1.2,0.,1.2
1986-01-24 15:05:00.110 ,6,0,544.,1.2,0.,1.2,0.,1.2,0.,1.2
1986-01-24 15:05:01.310 ,6,0,560.,1.2,0.,1.2,2.,1.2,1.,1.2
1986-01-24 15:05:02.510 ,6,0,560.,1.2,0.,1.2,2.,1.2,0.,1.2
1986-01-24 15:05:03.710 ,6,0,528.,1.2,0.,1.2,0.,1.2,0.,1.2
1986-01-24 15:05:04.910 ,6,0,512.,1.2,0.,1.2,0.,1.2,0.,1.2
1986-01-24 15:05:06.110 ,6,0,528.,1.2,0.,1.2,0.,1.2,0.,1.2
1986-01-24 15:05:07.310 ,6,0,560.,1.2,0.,1.2,3.,1.2,0.,1.2
1986-01-24 15:05:08.510 ,6,0,496.,1.2,0.,1.2,0.,1.2,0.,1.2
1986-01-24 15:05:09.710 ,6,0,560.,1.2,0.,1.2,0.,1.2,0.,1.2
1986-01-24 15:05:10.910 ,6,0,504.,1.2,0.,1.2,0.,1.2,1.,1.2
1986-01-24 15:05:12.110 ,6,0,528.,1.2,0.,1.2,2.,1.2,1.,1.2
1986-01-24 15:05:13.310 ,6,0,544.,1.2,0.,1.2,1.,1.2,0.,1.2
1986-01-24 15:05:12.710 ,6,0,560.,1.2,0.,1.2,1.,1.2,0.,1.2
1986-01-24 15:05:13.910 ,6,0,528.,1.2,0.,1.2,0.,1.2,0.,1.2
1986-01-24 15:05:15.110 ,6,0,544.,1.2,0.,1.2,2.,1.2,0.,1.2
1986-01-24 15:05:16.310 ,6,0,504.,1.2,0.,1.2,0.,1.2,1.,1.2
1986-01-24 15:05:17.510 ,6,0,456.,1.2,0.,1.2,0.,1.2,0.,1.2
1986-01-24 15:05:18.710 ,6,0,528.,1.2,0.,1.2,1.,1.2,0.,1.2
1986-01-24 15:05:19.910 ,6,0,528.,1.2,0.,1.2,0.,1.2,0.,1.2
1986-01-24 15:05:21.110 ,6,0,528.,1.2,0.,1.2,0.,1.2,0.,1.2
1986-01-24 15:05:22.310 ,6,0,480.,1.2,0.,1.2,1.,1.2,0.,1.2
1986-01-24 15:05:23.510 ,6,0,544.,1.2,0.,1.2,0.,1.2,0.,1.2
1986-01-24 15:05:24.710 ,6,0,456.,1.2,0.,1.2,0.,1.2,0.,1.2
1986-01-24 15:05:25.910 ,6,0,456.,1.2,0.,1.2,0.,1.2,0.,1.2
1986-01-24 15:05:27.110 ,6,0,512.,1.2,0.,1.2,0.,1.2,0.,1.2
1986-01-24 15:05:28.310 ,6,0,512.,1.2,0.,1.2,1.,1.2,0.,1.2
1986-01-24 15:05:29.510 ,6,0,488.,1.2,0.,1.2,0.,1.2,0.,1.2
1986-01-24 15:05:30.710 ,6,0,472.,1.2,0.,1.2,0.,1.2,0.,1.2
1986-01-24 15:05:31.910 ,6,0,488.,1.2,0.,1.2,1.,1.2,0.,1.2
1986-01-24 15:05:33.110 ,6,0,512.,1.2,0.,1.2,0.,1.2,0.,1.2
1986-01-24 15:05:34.310 ,6,0,464.,1.2,0.,1.2,1.,1.2,0.,1.2
1986-01-24 15:05:35.510 ,6,0,,0,,0,,0,,0
1986-01-24 15:05:42.710 ,6,0,,0,,0,,0,,0
1986-01-24 15:05:43.910 ,6,0,,0,,0,,0,,0
1986-01-24 15:05:45.110 ,6,0,,0,,0,,0,,0
1986-01-24 15:05:46.310 ,6,0,,0,,0,,0,,0
1986-01-24 15:05:47.510 ,6,0,,0,,0,,0,,0
1986-01-24 15:05:48.710 ,6,0,496.,1.2,0.,1.2,0.,1.2,0.,1.2
1986-01-24 15:05:49.910 ,6,0,472.,1.2,0.,1.2,0.,1.2,0.,1.2
1986-01-24 15:05:51.110 ,6,0,496.,1.2,0.,1.2,0.,1.2,0.,1.2
1986-01-24 15:05:52.310 ,6,0,480.,1.2,0.,1.2,1.,1.2,0.,1.2
1986-01-24 15:05:53.510 ,6,0,488.,1.2,0.,1.2,0.,1.2,0.,1.2
1986-01-24 15:05:54.710 ,6,0,488.,1.2,0.,1.2,1.,1.2,0.,1.2
1986-01-24 15:05:55.910 ,6,0,480.,1.2,0.,1.2,1.,1.2,1.,1.2
1986-01-24 15:05:57.110 ,6,0,496.,1.2,0.,1.2,2.,1.2,0.,1.2
1986-01-24 15:05:58.310 ,6,0,448.,1.2,0.,1.2,1.,1.2,0.,1.2
1986-01-24 15:05:59.510 ,6,0,456.,1.2,0.,1.2,0.,1.2,0.,1.2
1986-01-24 15:06:00.710 ,6,0,488.,1.2,0.,1.2,0.,1.2,0.,1.2
1986-01-24 15:06:01.910 ,6,0,464.,1.2,0.,1.2,2.,1.2,0.,1.2
1986-01-24 15:06:03.110 ,6,0,464.,1.2,0.,1.2,0.,1.2,0.,1.2
1986-01-24 15:06:04.310 ,6,0,472.,1.2,0.,1.2,2.,1.2,1.,1.2
1986-01-24 15:06:05.510 ,6,0,488.,1.2,0.,1.2,0.,1.2,0.,1.2
1986-01-24 15:06:00.710 ,6,0,512.,1.2,0.,1.2,1.,1.2,0.,1.2
1986-01-24 15:06:01.910 ,6,0,512.,1.2,0.,1.2,0.,1.2,1.,1.2
1986-01-24 15:06:03.110 ,6,0,448.,1.2,0.,1.2,0.,1.2,0.,1.2
1986-01-24 15:06:04.310 ,6,0,440.,1.2,0.,1.2,0.,1.2,0.,1.2
1986-01-24 15:06:05.510 ,6,0,480.,1.2,0.,1.2,0.,1.2,0.,1.2
1986-01-24 15:06:06.710 ,6,0,480.,1.2,0.,1.2,1.,1.2,1.,1.2
1986-01-24 15:06:07.910 ,6,0,488.,1.2,0.,1.2,0.,1.2,1.,1.2
1986-01-24 15:06:09.110 ,6,0,448.,1.2,0.,1.2,0.,1.2,0.,1.2
1986-01-24 15:06:10.310 ,6,0,440.,1.2,0.,1.2,0.,1.2,0.,1.2
1986-01-24 15:06:11.510 ,6,0,488.,1.2,0.,1.2,0.,1.2,0.,1.2
1986-01-24 15:06:12.710 ,6,0,448.,1.2,0.,1.2,1.,1.2,0.,1.2
1986-01-24 15:06:13.910 ,6,0,472.,1.2,0.,1.2,0.,1.2,0.,1.2
1986-01-24 15:06:15.110 ,6,0,488.,1.2,0.,1.2,1.,1.2,0.,1.2
1986-01-24 15:06:16.310 ,6,0,416.,1.2,0.,1.2,0.,1.2,0.,1.2
1986-01-24 15:06:17.510 ,6,0,456.,1.2,0.,1.2,2.,1.2,0.,1.2
1986-01-24 15:06:18.710 ,6,0,464.,1.2,0.,1.2,1.,1.2,1.,1.2
1986-01-24 15:06:19.910 ,6,0,448.,1.2,0.,1.2,1.,1.2,0.,1.2
1986-01-24 15:06:21.110 ,6,0,,0,,0,,0,,0
1986-01-24 15:06:22.310 ,6,0,,0,,0,,0,,0
1986-01-24 15:06:23.510 ,6,0,,0,,0,,0,,0
1986-01-24 15:06:26.510 ,6,0,,0,,0,,0,,0
1986-01-24 15:06:27.710 ,6,0,440.,1.2,0.,1.2,2.,1.2,1.,1.2
1986-01-24 15:06:28.910 ,6,0,464.,1.2,0.,1.2,0.,1.2,0.,1.2
1986-01-24 15:06:30.110 ,6,0,456.,1.2,0.,1.2,1.,1.2,0.,1.2
1986-01-24 15:06:31.310 ,6,0,400.,1.2,0.,1.2,0.,1.2,0.,1.2
1986-01-24 15:06:32.510 ,6,0,432.,1.2,0.,1.2,1.,1.2,0.,1.2
1986-01-24 15:06:33.710 ,6,0,416.,1.2,0.,1.2,1.,1.2,0.,1.2
1986-01-24 15:06:34.910 ,6,0,440.,1.2,0.,1.2,0.,1.2,0.,1.2
1986-01-24 15:06:36.110 ,6,0,488.,1.2,0.,1.2,1.,1.2,0.,1.2
1986-01-24 15:06:37.310 ,6,0,456.,1.2,0.,1.2,0.,1.2,0.,1.2
1986-01-24 15:06:38.510 ,6,0,448.,1.2,0.,1.2,2.,1.2,0.,1.2
1986-01-24 15:06:39.710 ,6,0,456.,1.2,0.,1.2,0.,1.2,0.,1.2
1986-01-24 15:06:40.910 ,6,0,472.,1.2,0.,1.2,0.,1.2,0.,1.2
1986-01-24 15:06:42.110 ,6,0,456.,1.2,0.,1.2,2.,1.2,0.,1.2
1986-01-24 15:06:43.310 ,6,0,424.,1.2,0.,1.2,1.,1.2,0.,1.2
1986-01-24 15:06:44.510 ,6,0,448.,1.2,0.,1.2,0.,1.2,0.,1.2
1986-01-24 15:06:45.710 ,6,0,424.,1.2,0.,1.2,0.,1.2,2.,1.2
1986-01-24 15:06:46.910 ,6,0,448.,1.2,0.,1.2,0.,1.2,0.,1.2
1986-01-24 15:06:48.110 ,6,0,440.,1.2,0.,1.2,0.,1.2,0.,1.2
1986-01-24 15:06:49.310 ,6,0,464.,1.2,0.,1.2,0.,1.2,0.,1.2
1986-01-24 15:06:48.710 ,6,0,440.,1.2,0.,1.2,0.,1.2,0.,1.2
1986-01-24 15:06:49.910 ,6,0,464.,1.2,0.,1.2,1.,1.2,0.,1.2
1986-01-24 15:06:51.110 ,6,0,472.,1.2,0.,1.2,0.,1.2,0.,1.2
1986-01-24 15:06:52.310 ,6,0,416.,1.2,0.,1.2,1.,1.2,0.,1.2
1986-01-24 15:06:53.510 ,6,0,416.,1.2,0.,1.2,0.,1.2,0.,1.2
1986-01-24 15:06:54.710 ,6,0,456.,1.2,0.,1.2,1.,1.2,0.,1.2
1986-01-24 15:06:55.910 ,6,0,432.,1.2,0.,1.2,1.,1.2,0.,1.2
1986-01-24 15:06:57.110 ,6,0,408.,1.2,0.,1.2,0.,1.2,0.,1.2
1986-01-24 15:06:58.310 ,6,0,424.,1.2,0.,1.2,0.,1.2,0.,1.2
1986-01-24 15:06:59.510 ,6,0,440.,1.2,0.,1.2,0.,1.2,0.,1.2
1986-01-24 15:07:00.710 ,6,0,424.,1.2,0.,1.2,3.,1.2,0.,1.2
1986-01-24 15:07:01.910 ,6,0,440.,1.2,0.,1.2,1.,1.2,0.,1.2
1986-01-24 15:07:03.110 ,6,0,424.,1.2,0.,1.2,1.,1.2,0.,1.2
1986-01-24 15:07:04.310 ,6,0,424.,1.2,0.,1.2,0.,1.2,0.,1.2
1986-01-24 15:07:05.510 ,6,0,440.,1.2,0.,1.2,0.,1.2,0.,1.2
1986-01-24 15:07:06.710 ,6,0,408.,1.2,0.,1.2,2.,1.2,0.,1.2
1986-01-24 15:07:07.910 ,6,0,424.,1.2,0.,1.2,0.,1.2,0.,1.2
1986-01-24 15:07:09.110 ,6,0,432.,1.2,0.,1.2,0.,1.2,0.,1.2
1986-01-24 15:07:10.310 ,6,0,424.,1.2,0.,1.2,0.,1.2,0.,1.2
1986-01-24 15:07:11.510 ,6,0,,0,,0,,0,,0
1986-01-24 15:07:22.310 ,6,0,,0,,0,,0,,0
1986-01-24 15:07:23.510 ,6,0,,0,,0,,0,,0
1986-01-24 15:07:24.710 ,6,0,,0,,0,,0,,0
1986-01-24 15:07:25.910 ,6,0,,0,,0,,0,,0
1986-01-24 15:07:27.110 ,6,0,,0,,0,,0,,0
1986-01-24 15:07:28.310 ,6,0,,0,,0,,0,,0
1986-01-24 15:07:29.510 ,6,0,,0,,0,,0,,0
1986-01-24 15:07:30.710 ,6,0,,0,,0,,0,,0
1986-01-24 15:07:31.910 ,6,0,400.,1.2,0.,1.2,0.,1.2,0.,1.2
1986-01-24 15:07:33.110 ,6,0,408.,1.2,0.,1.2,0.,1.2,0.,1.2
1986-01-24 15:07:34.310 ,6,0,408.,1.2,0.,1.2,0.,1.2,0.,1.2
1986-01-24 15:07:35.510 ,6,0,416.,1.2,0.,1.2,0.,1.2,0.,1.2
1986-01-24 15:07:36.710 ,6,0,408.,1.2,0.,1.2,0.,1.2,0.,1.2
1986-01-24 15:07:37.910 ,6,0,384.,1.2,0.,1.2,0.,1.2,0.,1.2
1986-01-24 15:07:39.110 ,6,0,376.,1.2,0.,1.2,0.,1.2,0.,1.2
1986-01-24 15:07:40.310 ,6,0,408.,1.2,0.,1.2,2.,1.2,0.,1.2
1986-01-24 15:07:41.510 ,6,0,360.,1.2,0.,1.2,0.,1.2,0.,1.2
1986-01-24 15:07:42.710 ,6,0,376.,1.2,0.,1.2,0.,1.2,0.,1.2
1986-01-24 15:07:43.910 ,6,0,392.,1.2,0.,1.2,1.,1.2,0.,1.2
1986-01-24 15:07:45.110 ,6,0,376.,1.2,0.,1.2,0.,1.2,0.,1.2
1986-01-24 15:07:36.710 ,6,0,400.,1.2,0.,1.2,0.,1.2,0.,1.2
1986-01-24 15:07:37.910 ,6,0,360.,1.2,0.,1.2,1.,1.2,0.,1.2
1986-01-24 15:07:39.110 ,6,0,408.,1.2,0.,1.2,0.,1.2,0.,1.2
1986-01-24 15:07:40.310 ,6,0,400.,1.2,0.,1.2,0.,1.2,0.,1.2
1986-01-24 15:07:41.510 ,6,0,368.,1.2,0.,1.2,0.,1.2,1.,1.2
1986-01-24 15:07:42.710 ,6,0,384.,1.2,0.,1.2,0.,1.2,0.,1.2
1986-01-24 15:07:43.910 ,6,0,424.,1.2,0.,1.2,0.,1.2,0.,1.2
1986-01-24 15:07:45.110 ,6,0,376.,1.2,0.,1.2,0.,1.2,0.,1.2
1986-01-24 15:07:46.310 ,6,0,376.,1.2,0.,1.2,0.,1.2,1.,1.2
1986-01-24 15:07:47.510 ,6,0,360.,1.2,0.,1.2,0.,1.2,0.,1.2
1986-01-24 15:07:48.710 ,6,0,432.,1.2,0.,1.2,0.,1.2,0.,1.2
1986-01-24 15:07:49.910 ,6,0,368.,1.2,0.,1.2,1.,1.2,0.,1.2
1986-01-24 15:07:51.110 ,6,0,384.,1.2,0.,1.2,0.,1.2,0.,1.2
1986-01-24 15:07:52.310 ,6,0,400.,1.2,0.,1.2,1.,1.2,0.,1.2
1986-01-24 15:07:53.510 ,6,0,384.,1.2,0.,1.2,0.,1.2,0.,1.2
1986-01-24 15:07:54.710 ,6,0,392.,1.2,0.,1.2,1.,1.2,0.,1.2
1986-01-24 15:07:55.910 ,6,0,376.,1.2,0.,1.2,0.,1.2,0.,1.2
1986-01-24 15:07:57.110 ,6,0,400.,1.2,0.,1.2,0.,1.2,0.,1.2
1986-01-24 15:07:58.310 ,6,0,336.,1.2,0.,1.2,0.,1.2,0.,1.2
1986-01-24 15:07:59.510 ,6,0,352.,1.2,0.,1.2,1.,1.2,0.,1.2
1986-01-24 15:08:00.710 ,6,0,376.,1.2,0.,1.2,0.,1.2,0.,1.2
1986-01-24 15:08:01.910 ,6,0,376.,1.2,0.,1.2,0.,1.2,0.,1.2
1986-01-24 15:08:03.110 ,6,0,400.,1.2,0.,1.2,0.,1.2,0.,1.2
1986-01-24 15:08:04.310 ,6,0,408.,1.2,0.,1.2,1.,1.2,0.,1.2
1986-01-24 15:08:05.510 ,6,0,360.,1.2,0.,1.2,0.,1.2,0.,1.2
1986-01-24 15:08:06.710 ,6,0,352.,1.2,0.,1.2,0.,1.2,0.,1.2
1986-01-24 15:08:07.910 ,6,0,392.,1.2,0.,1.2,0.,1.2,0.,1.2
1986-01-24 15:08:09.110 ,6,0,384.,1.2,0.,1.2,1.,1.2,0.,1.2
1986-01-24 15:08:10.310 ,6,0,376.,1.2,0.,1.2,0.,1.2,0.,1.2
1986-01-24 15:08:11.510 ,6,0,392.,1.2,0.,1.2,0.,1.2,0.,1.2
1986-01-24 15:08:12.710 ,6,0,400.,1.2,0.,1.2,0.,1.2,1.,1.2
1986-01-24 15:08:13.910 ,6,0,384.,1.2,0.,1.2,0.,1.2,0.,1.2
1986-01-24 15:08:15.110 ,6,0,368.,1.2,0.,1.2,0.,1.2,0.,1.2
1986-01-24 15:08:16.310 ,6,0,376.,1.2,0.,1.2,0.,1.2,0.,1.2
1986-01-24 15:08:17.510 ,6,0,376.,1.2,0.,1.2,0.,1.2,0.,1.2
1986-01-24 15:08:18.710 ,6,0,384.,1.2,0.,1.2,0.,1.2,0.,1.2
1986-01-24 15:08:19.910 ,6,0,352.,1.2,0.,1.2,0.,1.2,0.,1.2
1986-01-24 15:08:21.110 ,6,0,360.,1.2,0.,1.2,1.,1.2,1.,1.2
1986-01-24 15:08:22.310 ,6,0,352.,1.2,0.,1.2,0.,1.2,0.,1.2
1986-01-24 15:08:23.510 ,6,0,352.,1.2,0.,1.2,0.,1.2,1.,1.2
1986-01-24 15:08:24.710 ,6,0,352.,1.2,0.,1.2,1.,1.2,0.,1.2
1986-01-24 15:08:25.910 ,6,0,384.,1.2,0.,1.2,0.,1.2,0.,1.2
1986-01-24 15:08:27.110 ,6,0,344.,1.2,0.,1.2,0.,1.2,0.,1.2
1986-01-24 15:08:28.310 ,6,0,344.,1.2,0.,1.2,0.,1.2,0.,1.2
1986-01-24 15:08:29.510 ,6,0,368.,1.2,0.,1.2,0.,1.2,0.,1.2
1986-01-24 15:08:30.710 ,6,0,368.,1.2,0.,1.2,0.,1.2,0.,1.2
1986-01-24 15:08:31.910 ,6,0,352.,1.2,0.,1.2,0.,1.2,2.,1.2
1986-01-24 15:08:33.110 ,6,0,344.,1.2,0.,1.2,0.,1.2,1.,1.2
1986-01-24 15:08:34.310 ,6,0,392.,1.2,0.,1.2,0.,1.2,0.,1.2
1986-01-24 15:08:35.510 ,6,0,368.,1.2,0.,1.2,0.,1.2,0.,1.2
1986-01-24 15:08:36.710 ,6,0,376.,1.2,0.,1.2,0.,1.2,0.,1.2
1986-01-24 15:08:37.910 ,6,0,320.,1.2,0.,1.2,0.,1.2,0.,1.2